Location: ????????
(55.5283°N, 37.9612°E)
Time: 13:27:44
(UTC+00:00)

Daily predictions for brighter satellites

Satellite Brightness Start Highest point End
(mag) Time Altitude Azimuth Time Altitude Azimuth Time Altitude Azimuth
CZ-4B R/B 3.3 16:28:02 10° SE 16:33:23 58° ENE 16:38:39 10° NNW
Resurs 01 Rocket 1.8 16:29:49 10° SE 16:34:09 55° ENE 16:38:30 10° N
Terra 3.5 16:34:50 10° E 16:37:53 17° NE 16:40:55 10° N
NOSS 3-4 (A) 4.3 16:31:58 10° WNW 16:37:53 45° NNE 16:44:41 10° E
NOSS 3-4 (C) 4.3 16:32:04 10° WNW 16:37:58 45° NNE 16:44:46 10° E
Lacrosse 4 Rocket 2.1 16:33:57 10° NW 16:38:14 57° WSW 16:42:28 10° SSE
COSMO-SKYMED 1 4.1 16:35:59 10° N 16:40:07 42° WNW 16:44:13 10° SW
Cosmos 1356 Rocket 3.9 16:36:24 10° N 16:40:24 42° ENE 16:44:24 10° SE
NOSS 2-1 (C) 3.6 16:39:45 10° NW 16:43:13 66° SW 16:47:47 10° SE
BlueWalker 3 3.1 16:41:11 10° W 16:44:35 34° SSW 16:48:01 10° SE
Okean-O 3.6 16:41:13 10° ESE 16:45:01 29° ENE 16:48:51 10° N
Cosmos 2360 Rocket 2.4 16:40:51 10° SW 16:46:30 81° NW 16:52:11 10° NNE
USA 276 3.2 16:44:03 10° WSW 16:46:31 25° S 16:48:45 11° SE
CZ-4B R/B 2.9 16:45:06 10° SSE 16:48:56 82° WSW 16:53:00 10° NNW
ACS3 Solar Sail 2.2 16:44:50 10° SE 16:51:00 52° ENE 16:57:11 10° N
Cosmos 1766 Rocket 3.8 16:47:14 10° SSE 16:51:23 46° E 16:55:37 10° NNE
USA 306 4.1 16:54:22 10° S 16:56:26 15° SE 16:57:48 13° ESE
Cosmos 2322 Rocket 2.9 16:51:09 10° SW 16:56:48 62° NW 17:02:30 10° NNE
Cosmos 1725 Rocket 4.5 16:50:58 10° SSW 16:57:07 66° WNW 17:03:18 10° N
Cosmos 2237 Rocket 3.4 16:53:18 10° SE 16:57:14 20° E 17:01:11 10° NE
Cosmos 1842 3.0 16:54:57 10° N 16:58:36 69° ENE 17:02:12 10° SSE
SeaSat 1 3.7 17:00:27 10° NNE 17:05:07 44° NW 17:09:46 10° WSW
SPOT 5 3.3 17:01:03 11° SE 17:05:15 39° ENE 17:09:25 10° N
USA 290 2.2 17:02:30 10° NNW 17:05:46 90° W 17:08:55 11° SSE
Cosmos 2219 Rocket 2.2 17:00:23 10° SSW 17:06:04 84° ESE 17:11:47 10° NE
Cosmos 1674 2.8 17:02:56 10° NNW 17:06:16 62° W 17:09:33 10° S
Cosmos 1733 4.1 17:03:34 10° SE 17:06:22 24° E 17:09:13 10° NE
Cosmos 841 Rocket 3.7 17:02:22 10° SSW 17:07:34 78° WNW 17:12:45 10° NNE
CSL-04 Rocket 3.7 17:03:10 10° SSE 17:08:34 88° ENE 17:13:55 10° NNW
Iridium 4 Rocket 3.6 17:04:45 10° N 17:08:58 60° W 17:13:02 10° SSW
Cosmos 2333 Rocket 2.8 17:04:51 10° SW 17:10:35 64° NW 17:16:21 10° NNE
Cosmos 1891 Rocket 4.5 17:06:13 10° S 17:12:11 62° E 17:18:19 10° NNE
Cosmos 1707 2.4 17:09:49 10° N 17:13:24 83° ENE 17:16:57 10° SSE
Cosmos 1818 3.6 17:10:45 10° SSW 17:16:08 62° SE 17:21:34 10° NE
Cosmos 2344 4.3 17:10:10 10° W 17:17:13 50° N 17:25:23 10° ENE
Nadezhda 4 Rocket 4.0 17:11:28 10° N 17:17:41 65° ENE 17:23:55 10° SSE
SL-16 R/B 3.8 17:13:21 10° WSW 17:18:36 37° NW 17:23:52 10° NNE
Cosmos 1328 Rocket 4.2 17:15:20 10° NNW 17:19:34 57° W 17:23:46 10° S
NOSS 2-1 (E) 4.5 17:16:09 10° WNW 17:19:37 40° SW 17:24:10 10° SSE
USA 186 2.8 17:17:14 10° S 17:20:20 47° W 17:23:31 10° NNW
Cosmos 1125 Rocket 3.5 17:15:15 10° NNW 17:20:28 74° ENE 17:24:55 14° SE
ERS-1 Rocket 3.6 17:17:31 16° ESE 17:21:06 38° ENE 17:25:45 10° N
Ariane Rocket 4.1 17:18:22 16° ESE 17:21:28 28° ENE 17:25:43 10° N
PSLV R/B 3.6 17:19:12 14° SSE 17:22:11 62° ENE 17:25:42 10° N
Genesis I 3.8 17:19:11 10° WSW 17:22:35 51° NW 17:26:03 10° NE
SL-08 R/B 4.0 17:17:49 10° NNE 17:22:41 63° WNW 17:27:32 10° SSW
Cosmos 2369 Rocket 3.4 17:18:13 10° NNW 17:23:20 32° NE 17:27:27 14° E
Aureole 1 4.3 17:22:30 10° NNW 17:25:31 74° WSW 17:27:59 16° SSE
Cosmos 1980 4.3 17:20:57 10° SSE 17:25:55 32° ESE 17:30:54 10° NE
Cosmos 2026 Rocket 4.4 17:19:55 10° N 17:25:57 45° ENE 17:30:31 17° SE
MOS 1-B 4.5 17:20:40 10° SSE 17:26:27 79° WSW 17:32:18 10° NNW
MOS 1 Rocket 3.9 17:23:22 16° SE 17:27:12 49° ENE 17:32:17 10° N
ATLAS 2AS CENTAUR R/B 3.5 17:21:36 10° W 17:28:37 53° NNW 17:35:22 10° NE
Meteor 1-4 Rocket 3.2 17:26:46 10° NNW 17:29:18 37° W 17:31:48 10° SSW
Cosmos 1513 Rocket 4.4 17:23:54 10° S 17:29:56 74° E 17:36:03 10° NNE
KORONAS-FOTON 4.5 17:26:22 10° NNW 17:30:00 52° W 17:33:36 10° S
In-Cosmos 22 4.2 17:24:20 10° NNW 17:30:08 81° ENE 17:35:48 10° SSE
Cosmos 1340 4.1 17:27:32 10° SW 17:30:35 35° WNW 17:33:38 10° N
Cosmos 1805 Rocket 4.5 17:30:50 21° SE 17:32:37 28° E 17:36:19 10° NNE
Cosmos 2322 3.6 17:27:16 10° SSW 17:32:55 78° ESE 17:38:36 10° NE
Cosmos 1726 3.4 17:30:42 10° SW 17:33:17 32° WNW 17:35:53 10° N
Helios 1A 3.7 17:29:58 10° N 17:33:58 54° WNW 17:37:55 10° SW
Cosmos 1464 Rocket 4.0 17:28:56 10° S 17:35:10 65° E 17:41:29 10° NNE
SPOT 3 Rocket 4.4 17:33:38 20° ESE 17:36:28 33° ENE 17:41:03 10° N
Cosmos 1743 4.4 17:36:42 10° SW 17:39:59 34° WNW 17:43:18 10° N
Cosmos 1943 Rocket 2.2 17:37:28 10° NW 17:43:00 77° WSW 17:47:13 18° SSE
NOSS 0 Rocket 4.0 17:37:17 10° S 17:43:18 53° ESE 17:49:22 10° NE
Meteor 1-13 Rocket 4.3 17:37:36 10° NNW 17:43:34 88° WSW 17:49:12 11° S
IKONOS-2 4.3 17:40:39 10° NNE 17:44:50 74° ESE 17:48:58 10° S
Cosmos 1315 Rocket 2.7 17:42:58 10° NNW 17:46:58 82° ENE 17:49:24 23° SSE
Cosmos 1975 3.9 17:53:28 25° E 17:53:28 25° E 17:56:36 10° NNE
COSMOS 2428 2.7 17:48:06 10° SSW 17:53:49 88° SE 17:59:37 10° NE
Cosmos 2034 Rocket 4.0 17:49:10 10° S 17:55:16 62° E 18:01:22 10° NNE
SL-16 R/B 3.7 17:56:31 17° E 17:56:31 17° E 17:59:07 10° ENE
Cosmos 1814 Rocket 4.1 17:52:31 10° SSW 17:57:50 84° WNW 18:03:07 10° NNE
Okean 3 Rocket 3.7 17:53:59 10° SSW 17:58:28 80° WNW 18:02:56 10° N
Cosmos 1536 2.7 17:54:43 10° SSW 17:58:32 81° W 18:02:24 10° N
CZ-4 R/B 4.0 17:56:30 10° SW 17:59:12 18° W 18:01:56 10° NW
SL-24 R/B 4.3 17:56:25 21° SSE 17:59:43 69° E 18:04:31 10° N
MOS 1 4.4 17:55:18 13° S 18:00:23 75° WSW 18:06:07 10° NNW
Meteor 1-23 Rocket 4.2 17:54:52 10° NNW 18:00:31 81° ENE 18:04:19 22° SSE
Okean O Rocket 2.7 17:57:51 10° S 18:02:06 44° W 18:06:22 10° NNW
USA 267 3.2 17:59:56 23° ESE 18:04:18 86° SSW 18:10:55 10° WNW
Sich 1 3.0 18:02:58 28° SSE 18:04:57 55° E 18:09:12 10° NNE
SL-14 R/B 3.0 18:03:22 10° N 18:07:11 78° ENE 18:08:26 40° SSE
Cosmos 2278 Rocket 3.3 18:02:44 10° NW 18:08:00 40° WSW 18:12:46 12° S
NOSS 3-3 (A) 4.4 18:08:04 29° SE 18:09:14 31° ESE 18:14:45 10° ENE
Resurs 01 Rocket 3.8 18:07:14 10° SSW 18:10:53 24° W 18:14:32 10° NW
DELTA 2 DEB (DPAF) 3.8 18:07:22 10° NNE 18:11:34 70° ESE 18:14:01 24° S
Cosmos 2228 Rocket 3.4 18:08:22 10° N 18:12:51 51° ENE 18:14:09 38° ESE
Meteor 2-9 Rocket 4.0 18:08:53 10° S 18:14:12 79° E 18:19:41 10° NNE
USA 59 Rocket 2.2 18:11:47 10° W 18:14:32 18° SW 18:17:52 10° SSW
Terra 1.7 18:12:38 33° SSE 18:14:47 79° ENE 18:19:31 10° NNW
Lacrosse 4 Rocket 4.4 18:14:53 10° W 18:15:32 10° WSW 18:16:11 10° WSW
USA 245 3.5 18:16:33 32° N 18:16:33 32° N 18:18:03 10° N
USA 276 4.4 18:18:23 10° WSW 18:18:59 12° SW 18:18:59 12° SW
Cosmos 1656 Rocket 3.7 18:14:20 10° NNW 18:20:00 68° NE 18:22:22 36° SE
Okean-O 3.4 18:18:06 17° SSW 18:21:14 47° W 18:25:32 10° NNW
BlueWalker 3 4.4 18:20:49 10° WSW 18:21:48 11° SW 18:22:43 10° SSW
Meteor 1-11 Rocket 3.7 18:16:51 10° SSW 18:22:30 82° WNW 18:28:05 10° NNE
ARIANE 5 R/B 4.4 18:25:30 17° ENE 18:26:09 18° NE 18:29:04 10° NNE
Cosmos 2279 Rocket 4.4 18:24:55 34° SE 18:26:49 43° E 18:32:38 10° NNE
Spot 2 Rocket 3.4 18:25:25 36° SSE 18:27:31 85° ENE 18:32:35 10° NNW
USA 306 3.7 18:25:00 10° SW 18:26:56 29° SSW 18:26:56 29° SSW
NOSS 3-4 (A) 3.7 18:23:01 10° NW 18:29:31 82° NE 18:33:11 33° ESE
NOSS 3-4 (C) 3.7 18:23:06 10° NW 18:29:36 81° NE 18:33:17 33° ESE
Cosmos 1500 Rocket 3.5 18:27:05 23° SSW 18:29:48 83° WNW 18:34:12 10° N
Cosmos 1805 3.0 18:30:08 55° SSW 18:30:53 88° W 18:34:34 10° NNE
Cosmos 2360 Rocket 4.3 18:26:33 10° W 18:31:20 27° NNW 18:36:08 10° NNE
CRYOSAT 2 4.4 18:27:14 10° N 18:32:10 81° W 18:35:04 25° SSW
Cosmos 2298 Rocket 4.3 18:27:29 10° NNW 18:32:44 62° WSW 18:35:08 32° S
USA 32 4.5 18:28:49 10° NNW 18:33:59 60° W 18:37:31 20° SSW
Cosmos 1743 Rocket 3.4 18:33:30 39° S 18:35:04 86° ESE 18:39:27 10° NNE
ACS3 Solar Sail 3.0 18:29:12 10° SSW 18:35:14 42° W 18:41:17 10° NNW
Cosmos 2150 Rocket 4.4 18:31:27 10° NNW 18:36:32 58° WSW 18:38:44 32° S
Cosmos 2237 Rocket 2.1 18:34:53 10° SSW 18:40:32 86° ESE 18:46:12 10° NE
SPOT 5 4.0 18:40:12 17° SSW 18:43:19 35° W 18:47:29 10° NNW
Cosmos 2297 3.6 18:37:40 10° NNW 18:43:21 84° NE 18:45:07 46° SE
Cosmos 1570 Rocket 4.0 18:38:09 10° SSW 18:43:27 86° WNW 18:48:46 10° NNE
Cosmos 1408 Rocket 4.4 18:42:01 10° SSW 18:46:11 48° WNW 18:50:30 10° N
Cosmos 158 Rocket 3.7 18:42:45 14° SSW 18:46:57 89° WNW 18:51:52 10° NNE
Meteor 1-21 4.5 18:41:57 10° NNW 18:47:40 69° W 18:50:22 32° S
CZ-4C R/B 3.2 18:44:30 10° NNE 18:48:09 74° ENE 18:48:09 74° ENE
Okean 1-7 3.3 18:44:12 10° N 18:48:25 49° ENE 18:48:27 49° ENE
Cosmos 2219 Rocket 4.1 18:45:38 10° W 18:50:40 31° NW 18:55:42 10° NNE
Okean 3 3.2 18:47:12 10° N 18:51:23 85° ENE 18:51:37 78° SE
Aureole 3 3.8 18:48:08 10° N 18:51:05 45° NE 18:51:05 45° NE
Cosmos 2333 Rocket 4.5 18:51:17 10° W 18:55:59 25° NNW 19:00:40 10° NNE
ERS-1 Rocket 3.9 18:57:26 26° SSW 18:59:50 43° W 19:04:39 10° NNW
Ariane Rocket 3.2 18:58:30 43° SSW 19:00:03 65° WSW 19:05:08 10° NNW
Aureole 3 Rocket 4.3 18:53:48 10° SSW 19:00:34 59° WNW 19:05:25 10° N
Cosmos 839 Rocket 4.3 18:52:44 10° SW 19:01:00 84° SE 19:07:41 10° NE
Cosmos 836 Rocket 4.4 18:58:24 25° SSW 19:01:33 89° WNW 19:06:53 10° NNE
Cosmos 1766 4.1 19:04:36 39° NNE 19:04:36 39° NNE 19:07:04 10° NNE
Cosmos 2369 Rocket 2.1 19:02:14 10° NW 19:07:59 83° WSW 19:09:13 57° SSE
Cosmos 1980 4.1 19:04:02 10° SW 19:09:40 64° NW 19:15:22 10° NNE
USA 215 4.1 19:03:37 10° ENE 19:16:01 10° SSW 19:07:15 31° E
Cosmos 2266 Rocket 4.0 19:06:09 10° N 19:12:23 72° ENE 19:13:50 53° SE
SPOT 3 Rocket 4.0 19:14:14 40° SSW 19:15:41 53° W 19:20:45 10° NNW
Cosmos 1862 Rocket 4.0 19:14:01 10° NNW 19:18:20 54° W 19:18:45 52° WSW
ATLAS 2AS CENTAUR R/B 3.7 19:14:02 10° WNW 19:20:45 44° N 19:27:04 11° ENE
Cosmos 1633 Rocket 3.1 19:22:30 71° NNE 19:22:30 71° NNE 19:26:28 10° NNE
Cosmos 1707 Rocket 4.4 19:18:58 10° NNW 19:23:12 44° W 19:23:48 41° WSW
Cosmos 1943 Rocket 4.3 19:22:25 10° WNW 19:25:52 17° W 19:28:44 12° SW
Cosmos 1634 Rocket 4.3 19:22:15 25° SSW 19:26:00 64° WNW 19:32:19 10° N
Cosmos 773 Rocket 4.0 19:26:37 56° SW 19:27:48 85° WNW 19:33:08 10° NNE
Cosmos 1975 3.9 19:28:29 37° W 19:28:57 39° WNW 19:32:39 10° N
Okean 2 3.9 19:25:17 10° NNW 19:28:45 55° WNW 19:28:45 55° WNW
ALOS 2 4.2 19:29:59 25° NE 19:29:59 25° NE 19:33:20 10° N
Cosmos 1703 Rocket 3.7 19:25:26 10° N 19:29:28 68° NNE 19:29:28 68° NNE
Cosmos 1666 Rocket 3.7 19:31:55 68° WNW 19:31:55 68° WNW 19:36:13 10° N
Cosmos 2344 4.1 19:25:26 10° WNW 19:32:57 63° NNE 19:38:55 24° E
Cosmos 1470 Rocket 4.0 19:33:58 55° NE 19:33:58 55° NE 19:37:33 10° NNE
Cosmos 192 4.5 19:32:13 10° NNW 19:37:02 64° WSW 19:37:02 64° WSW
SL-16 R/B 2.0 19:38:20 75° SSE 19:38:40 79° ESE 19:44:22 10° NE
Cosmos 1655 Rocket 3.9 19:36:31 10° N 19:42:56 79° ENE 19:43:54 65° SE
NOSS 3-3 (C) 3.8 19:40:47 35° SW 19:43:25 86° SE 19:50:14 10° NE
Cosmos 1470 4.3 19:45:28 30° NNE 19:45:28 30° NNE 19:47:28 10° NNE
USA 267 3.6 19:47:17 45° SSW 19:47:46 46° SW 19:54:03 10° WNW
Cosmos 2263 4.3 19:43:15 10° NW 19:48:53 60° WSW 19:49:13 59° SW
RESURS DK-1 4.2 19:48:33 10° NNW 19:51:52 23° NNE 19:52:02 23° NE
Terra 3.9 19:51:20 16° WSW 19:52:56 19° W 19:56:16 10° NW
MetOp-A 4.3 19:56:28 51° W 19:56:28 51° W 20:00:51 10° NNW
Meteor 2-5 Rocket 3.8 19:52:59 10° NNW 19:58:57 69° ENE 19:59:15 67° E
NOSS 3-3 (A) 3.9 19:55:13 19° WSW 19:59:28 81° NW 20:06:21 10° NE
Cosmos 1371 Rocket 4.4 19:56:45 10° NNW 20:01:46 52° NE 20:01:46 52° NE
ARIANE 5 R/B 3.2 20:02:58 55° NNW 20:02:58 55° NNW 20:06:22 10° NNW
Cosmos 1943 4.1 20:04:12 36° ENE 20:04:12 36° ENE 20:07:56 10° NE
Meteor 2-10 Rocket 4.4 20:05:23 40° ENE 20:05:23 40° ENE 20:09:32 10° NNE
ASTEX 1 3.6 20:12:19 67° N 20:12:19 67° N 20:16:35 10° N
Meteor 1-24 Rocket 3.7 20:06:39 10° NNW 20:12:43 83° ENE 20:12:51 82° ESE
Cosmos 1624 Rocket 4.3 20:09:27 10° NNW 20:14:31 61° NE 20:14:31 61° NE
Cosmos 1697 Rocket 4.2 20:11:21 10° NNW 20:16:21 31° NE 20:18:26 24° ENE
Cosmos 1656 4.2 20:12:39 10° NNW 20:18:15 51° NE 20:18:47 49° ENE
Cosmos 2237 Rocket 3.9 20:20:18 10° W 20:25:15 31° NW 20:30:13 10° NNE
CZ-3B R/B 4.3 19:57:54 10° W 20:27:49 87° S 20:31:33 33° E
H-2A R/B 3.7 20:30:32 40° N 20:30:32 40° N 20:33:22 10° NNW
Cosmos 1607 4.1 20:34:04 48° WSW 20:36:01 76° NW 20:42:28 10° NE
EO 1 Delta rocket 4.4 20:31:47 10° N 20:35:47 55° NW 20:35:47 55° NW
Cosmos 1452 Rocket 4.5 20:34:12 10° NNW 20:39:09 38° NE 20:39:28 38° ENE
Cosmos 2056 Rocket 3.8 20:38:06 10° NNW 20:42:32 64° NNW 20:42:32 64° NNW
Cosmos 1745 Rocket 4.1 20:43:06 10° N 20:49:21 65° ENE 20:49:32 64° E
Cosmos 2369 Rocket 4.0 20:47:16 10° WNW 20:50:59 19° W 20:50:59 19° W
USA 215 3.1 20:46:45 10° ENE 20:53:22 84° SSE 20:54:28 64° WSW
ATLAS CENTAUR R/B 3.4 20:58:09 23° NNE 20:58:09 23° NNE 21:00:16 10° NE
Cosmos 1733 Rocket 4.5 21:07:35 34° NNE 21:07:35 34° NNE 21:10:06 10° NNE
ALOS 2 4.0 21:07:23 35° NW 21:07:23 35° NW 21:10:09 10° NNW
Cosmos 1386 Rocket 4.4 21:06:11 10° NNW 21:12:35 83° W 21:12:35 83° W
ATLAS 2AS CENTAUR R/B 2.8 21:05:42 10° NW 21:12:40 70° NNE 21:14:25 50° E
Cosmos 1980 Rocket 3.5 21:10:13 10° NNW 21:15:23 36° NE 21:17:18 28° ENE
SL-16 R/B 3.7 21:20:10 19° W 21:23:21 33° NW 21:28:27 10° NNE
Meteor 1-12 Rocket 4.4 21:25:54 64° NW 21:25:54 64° NW 21:31:12 10° N
RESURS DK-1 4.5 21:25:57 10° NW 21:27:32 23° NW 21:27:32 23° NW
Cosmos 1025 Rocket 4.4 21:26:26 10° N 21:29:09 37° N 21:29:09 37° N
Cosmos 923 Rocket 4.4 21:33:59 60° N 21:33:59 60° N 21:38:25 10° NNE
Cosmos 1553 Rocket 4.1 21:34:56 68° W 21:35:05 68° WNW 21:41:20 10° N
Cosmos 1603 3.8 21:36:02 70° NNW 21:36:02 70° NNW 21:41:21 10° NNE
In-Cosmos 22 Rocket 4.3 21:31:05 10° NNW 21:36:21 71° NE 21:36:21 71° NE
Cosmos 2360 4.4 21:31:35 10° NW 21:36:29 65° NW 21:36:29 65° NW
Cosmos 1709 Rocket 3.9 21:32:09 10° NNW 21:38:33 87° W 21:38:33 87° W
Cosmos 1680 Rocket 3.9 21:41:52 63° N 21:41:52 63° N 21:46:23 10° NNE
Cosmos 1943 3.9 21:45:58 45° WNW 21:46:38 47° NW 21:52:07 10° NNE
Cosmos 2344 4.0 21:39:43 10° NW 21:47:37 61° SW 21:48:50 57° SSW
Meteor 1-16 Rocket 4.4 21:48:59 64° NNW 21:48:59 64° NNW 21:53:35 10° NNE
Cosmos 1833 Rocket 3.9 21:51:22 31° E 21:51:22 31° E 21:55:26 10° NE
H-2A R/B 3.5 21:47:41 10° NNE 21:50:29 34° NE 21:50:29 34° NE
Cosmos 2074 Rocket 4.4 21:50:22 10° N 21:56:29 54° ENE 21:57:20 50° E
Cosmos 1697 Rocket 2.9 21:55:17 10° NW 22:00:06 65° NW 22:00:06 65° NW
Cosmos 1975 Rocket 4.3 22:04:21 10° N 22:07:13 40° N 22:07:13 40° N
Cosmos 1302 Rocket 4.3 22:04:45 10° NNW 22:09:24 66° N 22:09:24 66° N
USA 281 4.0 22:06:27 18° ESE 22:11:04 49° NE 22:17:21 10° NNW
Cosmos 2322 Rocket 4.3 22:09:32 10° NNW 22:14:14 25° NNE 22:18:54 10° E
Meteor 2-20 4.3 22:14:19 90° E 22:14:19 90° E 22:20:27 10° NNE
Cosmos 521 Rocket 4.4 22:12:27 10° NW 22:19:01 85° SW 22:19:16 82° S
CZ-2D R/B 4.1 22:16:51 10° NE 22:20:38 19° E 22:22:06 17° ESE
IRIDIUM 106 4.5 22:24:53 69° NNW 22:24:53 69° NNW 22:29:32 10° N
SL-16 R/B 4.3 22:19:05 10° ESE 22:24:17 29° NE 22:29:30 10° N
Cosmos 2369 4.0 22:19:58 10° NNW 22:25:40 64° NE 22:26:41 54° E
Cosmos 2082 Rocket 3.9 22:26:39 20° ESE 22:27:03 20° E 22:31:04 10° NE
Meteor 2-20 Rocket 4.2 22:27:56 83° SE 22:28:04 84° E 22:34:14 10° NNE
S3M 4.2 22:28:13 53° W 22:28:30 53° WNW 22:34:34 10° N
Cosmos 2333 Rocket 4.3 22:23:52 10° NNW 22:28:40 26° NNE 22:33:26 10° E
CZ-4C R/B 4.0 22:32:03 16° ESE 22:32:03 16° ESE 22:34:51 10° ENE
ADEOS II 4.3 22:28:41 10° NE 22:31:47 16° E 22:33:45 13° ESE
Cosmos 1048 Rocket 4.1 22:32:40 76° NNE 22:32:40 76° NNE 22:37:37 10° NNE
Cosmos 1953 4.4 22:35:20 22° NNW 22:35:20 22° NNW 22:37:17 10° N
Cosmos 1295 Rocket 4.3 22:28:01 10° N 22:34:09 82° E 22:34:39 75° SE
ARIANE 6 FM1 Upper Stage 3.8 22:35:42 45° NNE 22:35:42 45° NNE 22:39:06 10° NE
ATLAS CENTAUR R/B 3.7 22:32:52 13° NW 22:35:14 22° N 22:38:23 10° NE
Cosmos 2184 Rocket 3.9 22:29:57 10° NNW 22:36:16 88° E 22:36:51 75° SSE
SL-16 R/B 3.6 22:31:09 10° NNW 22:36:26 37° NE 22:41:41 10° ESE
USA 215 3.3 22:29:52 10° E 22:36:26 79° N 22:41:42 17° W
Cosmos 1300 Rocket 4.4 22:37:59 49° N 22:37:59 49° N 22:41:13 10° N
IDEFIX/ARIANE 42P 3.6 22:38:01 10° NNE 22:42:52 36° E 22:43:22 35° ESE
Cosmos 1536 Rocket 4.3 22:38:32 10° N 22:42:23 51° NE 22:42:23 51° NE
Meteor 2-11 Rocket 4.2 22:39:10 10° NNW 22:45:17 79° W 22:45:30 78° SW
Cosmos 972 Rocket 4.2 22:50:06 74° SSE 22:50:28 77° ESE 22:56:03 10° NNE
Nadezhda 1 Rocket 4.4 22:50:54 47° SE 22:52:10 56° E 22:58:15 10° NNE
Cosmos 921 Rocket 3.9 22:54:24 44° NNW 22:54:24 44° NNW 22:57:55 10° NNE
COBE Rocket 4.2 22:50:46 10° N 22:55:02 59° NW 22:55:02 59° NW
Cosmos 494 Rocket 4.5 22:58:12 48° WNW 22:58:20 48° NW 23:03:23 10° NNE
Cosmos 1980 Rocket 2.3 22:54:13 10° NW 22:59:00 59° WNW 22:59:00 59° WNW
CZ-2C R/B 2.4 23:02:31 89° SW 23:02:32 89° WSW 23:07:44 10° NNW
ATLAS 2AS CENTAUR R/B 3.3 22:56:55 10° NW 23:01:46 39° W 23:01:46 39° W
Helios 1A Rocket 4.3 23:11:44 30° NNW 23:11:44 30° NNW 23:13:47 10° NNW
Cosmos 1992 Rocket 4.1 23:09:21 10° NNW 23:13:57 63° WNW 23:13:57 63° WNW
Cosmos 2154 Rocket 3.9 23:08:36 10° NNW 23:14:44 64° W 23:15:19 61° WSW
ALOS 4.3 23:11:43 10° NE 23:15:10 20° E 23:17:09 16° ESE
Lacrosse 5 3.5 23:15:44 22° ESE 23:15:44 22° ESE 23:19:11 10° E
MOZ.5/SAFIR/RUBIN 5/SL-8 4.3 23:16:32 48° NW 23:16:32 48° NW 23:20:15 10° NNW
Okean 2 Rocket 3.4 23:15:47 58° E 23:15:47 58° E 23:19:57 10° NNE
Resurs 1-4 Rocket 2.8 23:13:28 10° NNE 23:18:33 46° E 23:19:47 39° SE
CZ-2C R/B 3.6 23:13:12 10° NNE 23:18:51 60° E 23:20:18 46° SSE
Cosmos 2098 Rocket 3.9 23:19:59 35° NE 23:19:59 35° NE 23:22:24 10° NNE
Gbstr 26 Del rocket 4.1 23:19:18 51° SSE 23:19:21 51° SSE 23:24:57 10° E
Meteor 1-28 Rocket 4.3 23:25:38 37° ENE 23:25:44 37° ENE 23:29:01 10° N
Cosmos 614 Rocket 3.8 23:26:33 70° SSE 23:26:56 74° ESE 23:32:01 10° NNE
H-2A R/B 3.4 23:23:38 10° N 23:27:12 29° NW 23:27:12 29° NW
Okean 1 Rocket 3.5 23:27:33 52° ESE 23:27:50 53° E 23:32:06 10° NNE
SeaSat 1 3.6 23:25:24 10° ESE 23:30:01 42° NE 23:34:39 10° NNW
Cosmos 2151 Rocket 3.5 23:32:30 89° NE 23:32:30 89° NE 23:37:02 10° NNE
Cosmos 2237 4.2 23:26:50 10° NNW 23:32:35 79° NE 23:38:17 10° SE
Cosmos 1833 Rocket 2.8 23:33:03 53° W 23:34:04 62° NW 23:39:43 10° NNE
NPP 3.6 23:36:46 10° NNE 23:42:13 88° ESE 23:43:25 56° SSW
SL-8 Rocket 3.9 23:38:04 10° NNW 23:44:16 88° E 23:47:11 34° S
Geosat 4.0 23:42:31 10° NE 23:47:34 74° ESE 23:48:33 56° S
Cosmos 864 Rocket 4.5 23:41:28 10° N 23:47:48 84° E 23:51:35 26° SSE
Cosmos 2360 Rocket 2.9 23:43:11 10° NNW 23:48:42 53° NE 23:54:12 10° SE
Cosmos 1892 Rocket 3.5 23:49:44 10° N 23:54:11 82° ENE 23:55:10 54° SSE
Cosmos 1271 Rocket 3.7 23:51:03 10° NNW 23:53:17 35° NNW 23:53:17 35° NNW
